This demonstration page uses our WeatherBlox Daily Observations layout. Learn more.

38.89511, -77.03637

Hourly Observations for June 16, 2020

Temp ( °F °C ) Dew Point ( °F °C ) Humidity (%) Winds ( mph kmh ) Pressure ( in mb ) Visibility ( mi km ) Precip ( " mm )
12:52 am 00:52 Cloudy 67 19.4 52 11.1 59 59 E 9 15 30.35 1028 10 16.0934 0 0
1:52 am 01:52 Cloudy 66 18.9 54 12.2 65 65 ENE 10 17 30.34 1027 10 16.0934 0 0
2:52 am 02:52 Cloudy 66 18.9 54 12.2 65 65 ENE 13 20 30.32 1027 10 16.0934 0 0
3:52 am 03:52 Cloudy 65 18.3 54 12.2 68 68 NNE 9 15 30.32 1027 10 16.0934 0 0
4:52 am 04:52 Cloudy 65 18.3 53 11.7 66 66 NNE 13 20 30.32 1027 10 16.0934 0 0
5:52 am 05:52 Mostly Cloudy 65 18.3 51 10.6 61 61 NNE 12 19 30.34 1027 10 16.0934 0 0
6:52 am 06:52 Cloudy 65 18.3 52 11.1 63 63 NNE 13 20 30.33 1027 10 16.0934 0 0
7:52 am 07:52 Cloudy 65 18.3 52 11.1 63 63 NNE 13 20 30.35 1028 10 16.0934 0 0
8:52 am 08:52 Cloudy with Light Rain 65 18.3 53 11.7 66 66 NE 13 20 30.35 1028 10 16.0934 0.001 0.001
9:52 am 09:52 Cloudy 69 20.6 53 11.7 57 57 NE 16 26 30.35 1028 10 16.0934 0 0
10:52 am 10:52 Cloudy 71 21.7 52 11.1 51 51 NE 15 24 30.33 1027 10 16.0934 0 0
11:52 am 11:52 Cloudy 73 22.8 52 11.1 48 48 NE 17 28 30.33 1027 10 16.0934 0 0
12:52 pm 12:52 Cloudy 74 23.3 53 11.7 48 48 ENE 15 24 30.32 1027 10 16.0934 0 0
1:52 pm 13:52 Mostly Cloudy 74 23.3 53 11.7 48 48 ENE 17 28 30.31 1026 10 16.0934 0 0
2:52 pm 14:52 Mostly Cloudy 77 25 53 11.7 43 43 NE 16 26 30.29 1026 10 16.0934 0 0
3:52 pm 15:52 Mostly Cloudy 78 25.6 54 12.2 43 43 ENE 14 22 30.28 1025 10 16.0934 0 0
4:52 pm 16:52 Mostly Cloudy 77 25 53 11.7 43 43 ENE 18 30 30.25 1024 10 16.0934 0 0
5:52 pm 17:52 Mostly Cloudy 75 23.9 53 11.7 46 46 NE 16 26 30.25 1024 10 16.0934 0 0
6:52 pm 18:52 Cloudy 74 23.3 52 11.1 46 46 E 16 26 30.24 1024 10 16.0934 0 0
7:52 pm 19:52 Mostly Cloudy 73 22.8 51 10.6 46 46 ENE 15 24 30.24 1024 10 16.0934 0 0
8:52 pm 20:52 Mostly Cloudy 72 22.2 51 10.6 48 48 E 10 17 30.24 1024 10 16.0934 0 0
9:52 pm 21:52 Mostly Cloudy 70 21.1 53 11.7 55 55 ENE 10 17 30.26 1025 10 16.0934 0 0
10:52 pm 22:52 Cloudy 69 20.6 56 13.3 63 63 E 10 17 30.26 1025 10 16.0934 0 0
11:52 pm 23:52 Cloudy 68 20 58 14.4 70 70 ENE 7 11 30.26 1025 10 16.0934 0 0

Powered by AerisWeather